Location: Carri�res
(48.9069°N, 2.1792°E)
Time: 11:24:46
(UTC+00:00)

Cosmos 2297 Rocket - Visible Passes

Search period start: 14 May 2021 00:00
Search period end: 24 May 2021 00:00
Orbit: 838 x 844 km, 71.0° (Epoch: 13 May)

Date Brightness Start Highest point End Pass type
(mag) Time Alt. Az. Time Alt. Az. Time Alt. Az.
14 May 3.3 00:15:03 10° NNW 00:20:27 42° NE 00:25:29 12° ESE visible
14 May 2.7 01:59:15 10° NW 02:04:28 38° WSW 02:07:13 24° SSW visible
14 May 4.8 22:17:15 10° N 22:19:32 12° NNE 22:21:49 10° NE visible
14 May 3.3 23:59:56 10° NNW 00:05:17 40° NE 00:09:56 13° ESE visible
15 May 2.7 01:44:05 10° NW 01:49:20 40° WSW 01:51:41 27° SSW visible
15 May 4.8 22:02:12 10° N 22:04:19 12° NNE 22:06:27 10° NE visible
15 May 3.4 23:44:47 10° NNW 23:50:06 39° NE 23:54:30 14° ESE visible
16 May 2.6 01:28:54 10° NW 01:34:13 42° WSW 01:36:15 31° SSW visible
16 May 4.8 21:47:09 10° N 21:49:06 12° NNE 21:51:04 10° NE visible
16 May 3.4 23:29:40 10° NNW 23:34:56 37° NE 23:39:09 15° ESE visible
17 May 2.6 01:13:43 10° NW 01:19:05 44° WSW 01:20:54 34° SSW visible
17 May 4.8 21:32:07 10° N 21:33:53 11° NNE 21:35:39 10° NE visible
17 May 3.5 23:14:32 10° NNW 23:19:46 36° NE 23:23:53 15° ESE visible
18 May 2.5 00:58:33 10° NW 01:03:57 46° WSW 01:05:39 36° SSW visible
18 May 4.8 21:17:06 10° N 21:18:40 11° NNE 21:20:14 10° NE visible
18 May 3.5 22:59:24 10° NNW 23:04:35 35° NE 23:08:40 15° ESE visible
19 May 2.5 00:43:23 10° NW 00:48:50 49° WSW 00:50:26 38° SSW visible
19 May 4.8 21:02:06 10° N 21:03:26 11° NNE 21:04:47 10° NE visible
19 May 3.5 22:44:16 10° NNW 22:49:24 33° NE 22:53:30 15° ESE visible
20 May 2.5 00:28:13 10° NW 00:33:41 51° WSW 00:35:17 39° SSW visible
20 May 4.8 20:47:10 10° NNE 20:48:13 10° NNE 20:49:16 10° NE visible
20 May 3.6 22:29:09 10° NNW 22:34:13 32° NE 22:38:24 14° ESE visible
21 May 2.4 00:13:02 10° NW 00:18:34 54° WSW 00:20:11 40° SSW visible
21 May 4.8 20:32:18 10° NNE 20:32:59 10° NNE 20:33:40 10° NNE visible
21 May 3.6 22:14:01 10° NNW 22:19:02 31° NE 22:23:20 13° ESE visible
21 May 2.4 23:57:52 10° NW 00:03:26 57° WSW 00:05:06 41° SSW visible
22 May 3.6 21:58:53 10° NNW 22:03:52 30° NE 22:08:18 12° ESE visible
22 May 2.3 23:42:42 10° NW 23:48:17 59° WSW 23:50:04 41° S visible
23 May 3.7 21:43:47 10° NNW 21:48:40 29° NE 21:53:18 11° ESE visible
23 May 2.3 23:27:32 10° NNW 23:33:08 62° WSW 23:35:04 40° S visible
